Terug naar catalogus

METEOR M2-4

ActiefWeerSSO
NORAD 59051·PAYLOAD·🇷🇺 Russia

Gelanceerd Feb 29, 2024 vanaf Vostochny Cosmodrome

Loading…

Volgende Passages (komende 24 uur)

TLE

VersSource: Space-Track

Epoch: Sep 14, 2026, 14:06 UTC

1 59051U 24039A   26257.58782083 -.00000003  00000-0  18510-4 0  9994
2 59051  98.7115 215.8015 0005919 272.9142  87.1359 14.22437376131979

Volg METEOR M2-4 in realtime met AllMySat

Download on the App Store